Tracking 18984 objects as of 24-Feb-2018
HD Live streaming from Space Station
objects crossing your sky now

FENGYUN 1C DEB

Track FENGYUN 1C DEB now!
10-day predictions


NORAD ID: 30297
Int'l Code: 1999-025ZJ
Perigee: 576.9 km
Apogee: 1,350.8 km
Inclination: 98.8 °
Period: 104.2 minutes
Semi major axis: 7334 km
RCS: 0.0363 m2 (small)
Launch date: May 10, 1999
Source: People's Republic of China (PRC)
Launch site: Taiyaun Space Center, China (TSC)

Note: This is SATELLITE DEBRIS
aabbcc
Your satellite tracking list
Your tracking list is empty




NASA's NSSDC Master Catalog

Two Line Element Set (TLE):
1 30297U 99025ZJ  18054.24004736  .00000413  00000-0  14536-3 0  9990
2 30297  98.7672 124.7346 0527597  56.0465 350.5230 13.82026213555450
Source of the keplerian elements: AFSPC